Location: ???? ??
(36.0534°N, 43.5630°E)
Time: 14:21:23
(UTC+00:00)

Cosmos 1980 - Pass Details

Date: 18 September 2019
Orbit: 841 x 845 km, 71.0° (Epoch: 19 October)

Event Time Altitude Azimuth Distance (km) Brightness Sun altitude
Rises 16:28:46 0° 347° (NNW) 3,402 7.2 -16.7°
Reaches altitude 10° 16:31:28 10° 357° (N) 2,463 6.3 -17.2°
Maximum altitude 16:36:32 33° 61° (ENE) 1,382 4.4 -18.2°
Enters shadow 16:37:44 30° 86° (E) 1,464 4.4 -18.4°
